Погода в Вольном

Россия / Омская область     54°17′13″N   71°21′22″E
темп.,
°C
ветер,
м/с
пор.,
м/с
влажн.,
%
обл.,
%
осадки,
мм/ч
давл.,
гПа
погр.,
м
10 апреля, сб
сб1000:00+1с3698100 0.2 1028167
03:000ссв4798100 0.1 1029321
06:000ссв6998100 0.1 1031338
09:00+1всв5996100 0.0 1034299
12:00+1в489711 0.0 1037353
15:00+2всв579523 0.0 1038341
18:00+2всв47905 0.0 1040258
21:00−1всв359716 0.0 104183
11 апреля, вс
вс1100:00−1в35965 0.0 104291
03:00−2в24955 0.0 104281
06:00−2в359838 0.0 1043125
09:00−2вюв4593100 0.0 1043272
12:00+2юв34795 0.0 1043391
15:00+5юв23675 0.0 1041421
18:00+5юв12752 0.0 104155
21:00+2ююв338498 0.0 104021
12 апреля, пн
пн1200:00+1ю338890 0.0 103933
03:00+1юз338663 0.0 103832
06:00+1юз3385100 0.0 103831
09:00+3з357899 0.0 1037144
12:00+7з456459 0.0 1036336
15:00+10з465864 0.0 1035465
18:00+9зсз3769100 0.0 1035313
21:00+6зсз3382100 0.0 103542
13 апреля, вт
вт1300:00+5ссз3493100 0.1 103574
03:00+5ссв3495100 0.1 103668
06:00+4ссв3494100 0.1 103766
09:00+6св358672 0.0 1038209
12:00+10св33605 0.0 1038770
15:00+12ссв23460 0.0 10371114
18:00+12с22430 0.0 10361021
21:00+9св11590 0.0 103610
14 апреля, ср
ср1400:00+7ю11620 0.0 103610
03:00+6ююз22670 0.0 103512
06:00+4юз22731 0.0 103517
09:00+7юз34675 0.0 1034163
12:00+12юз455277 0.0 1032661
15:00+14зюз564598 0.0 1030970
18:00+15з46457 0.0 10271002
21:00+11з336328 0.0 102625